Regional Weather Roundup
Issued by NWS Charleston, SC

Home | Current Version | Previous Version | Text Only | Print | Product List | Glossary On
Versions: 1 2 3 4 5 6 7 8 9 10 11 12 13 14 15 16 17 18 19 20 21 22 23 24 25 26 27 28 29 30 31 32 33 34 35 36 37 38 39 40 41 42 43 44 45 46 47 48 49 50
000
ASUS42 KCHS 210210
RWRCHS

REGIONAL WEATHER ROUNDUP
NATIONAL WEATHER SERVICE CHARLESTON SC
1000 PM EDT SAT SEP 20 2014

NOTE: "FAIR" INDICATES FEW OR NO CLOUDS BELOW 12,000 FEET WITH NO
SIGNIFICANT WEATHER AND/OR OBSTRUCTIONS TO VISIBILITY.

NOT ALL STATIONS ARE QUALITY CONTROLLED BY THE NATIONAL
WEATHER SERVICE. USE DATA WITH CAUTION...ESPECIALLY
DEWPOINT OBSERVATIONS.

SCZ027-030-031-034>040-042>050-210300-
...SOUTH CAROLINA...

CITY           SKY/WX    TMP DP  RH WIND       PRES   REMARKS
N CHARLESTON   CLOUDY    74  63  68 N9        29.94F
WATERFRONT PRK   N/A     73 N/A N/A N10         N/A
FORT JOHNSON   NOT AVBL
MOUNT PLEASANT FAIR      72  66  83 N5        29.94S
JOHNS ISLAND   CLEAR     73  72  94 N7        29.94F
PINOPOLIS        N/A     75  66  73 NE16      29.86F
MONCKS CORNER    N/A     75  66  73 N6        29.95S
SUMMERVILLE    FAIR      70  64  83 N5        29.96F
BEAUFORT MCAS  CLOUDY    72  64  76 SW10      29.96S
BEAUFORT ARPT  FAIR      72  64  78 N12       29.95S
HILTON HEAD IS CLOUDY    73  64  73 N9        29.97R
GEORGETOWN     NOT AVBL
WALTERBORO     CLOUDY    70  70 100 NW5       29.98R
ORANGEBURG     CLOUDY    72  62  71 N5        29.99R
BARNWELL       FAIR      70  63  78 N6        30.00S
AIKEN          FAIR      68  63  83 CALM      30.05S
MANNING        FAIR      72  64  78 N6        29.97S
KINGSTREE      NOT AVBL
COLUMBIA       MOCLDY    73  59  61 N5        29.99F
SUMTER         CLOUDY    71  61  69 N9        29.98S
FLORENCE       CLOUDY    72  63  73 N7        29.97F
MYRTLE BEACH   DRIZZLE   72  64  78 N12       29.92F
N MYRTLE BEACH LGT RAIN  71  67  87 N7        29.92F

$$

GAZ063-065-086>088-099>101-113>116-118-119-134-136>141-150-210300-
...GEORGIA...

CITY           SKY/WX    TMP DP  RH WIND       PRES   REMARKS
SAVANNAH ARPT  CLOUDY    71  63  75 N7        29.97S
HUNTER AAF     CLOUDY    72  64  75 N8        29.95R
FORT STEWART   MOCLDY    71  64  76 N6        29.97R
STATESBORO     NOT AVBL
SYLVANIA       MOCLDY    74  69  85 N3        30.01R
CLAXTON        FAIR      72  68  88 CALM      30.00R
THOMSON        CLEAR     67  67 100 CALM      30.07S
AUGUSTA-BUSH   PTCLDY    63  61  93 CALM      30.01R
AUGUSTA-DANIEL PTCLDY    74  61  63 N3        30.02S
SWAINSBORO     FAIR      70  70 100 CALM      30.02S
VIDALIA        PTCLDY    70  64  83 CALM      30.01S
ALMA           CLEAR     70  64  81 CALM      30.00R
WAYCROSS       NOT AVBL
JESUP          FAIR      73  70  88 N5        29.99R
BRUNSWICK      PTCLDY    72  66  83 CALM      29.98R
SAINT SIMONS   PTCLDY    71  67  87 N7        29.96R

$$

SCZ027-028-034-036>038-045-046-048>050-GAZ119-141-210300-
...LAKE AND SUPPLEMENTAL COASTAL OBSERVATIONS...

STATION/POSITION TIME  TEMP    WIND        PRES    WAVE   SWELL
                       AIR SEA DIR/SP/G            HT/PER HT/PER/DIR
                 (UTC) (F)     (DEG/KT/KT) (MB)    (FT/S) (FT/S/D)
UPR LAKE MARION  NOT AVBL
WINYAH BAY       0100   71     350/  6     1013.0S
LAKE MURRAY      0100   75      30/  2/  3 1015.9R
ACE BASIN NERRS  0100   72     360/  3     1014.0S
FORT PULASKI     0200   72     340/ 11/ 13 1014.6F
SAPELO ISLAND    0100   74     350/ 12     1015.0R

$$

ANZ835-935-AMZ111-154-330-350-352-354-374-450-454-472-210300-
...C-MAN AND BUOY OBSERVATIONS...

STATION/POSITION TIME  TEMP    WIND        PRES    WAVE   SWELL
                       AIR SEA DIR/SP/G            HT/PER HT/PER/DIR
                 (UTC) (F)     (DEG/KT/KT) (MB)    (FT/S) (FT/S/D)
FOLLY BEACH CMAN 0100   72     340/  9/ 12 1014.1R
BUOY 41004       0200   77 82   10/ 25/ 29 1010.5F   8/ 8   5/ 8
BUOY 41008       0200   77 83   10/ 19/ 23 1013.5R   6/ 6   2/ 90/ 9
5E ST. MARYS GA  0200      83                N/A     6/ 7
FRYING PAN BUOY  NOT AVBL
BUOY 41025       0200   76      60/ 19/ 21 1013.0F   7/10   5/ 60/10
CAPE LOOKOUT NC  0100   71      10/ 10/ 12 1013.4F
BUOY 41002       0129   78 82  190/ 17/ 21 1011.7    8/10   5/ 40/10
BUOY 41010       0200   81 84  240/ 17/ 19 1011.3R   6/ 6   3/ 10/ 8
BUOY 41012       NOT AVBL
ST AUGUSTINE FL  0200   74     320/ 11/ 14 1014.2R
CAPERS NEARSHORE 0100   72      30/ 16/ 17   N/A
FRIPP NEARSHORE  NOT AVBL


$$


USA.gov is the U.S. government's official web portal to all federal, state and local government web resources and services.